User: anonymous   Login
Location: Bonham
(33.5773°N, 96.1783°W)
Time: 01:55:06
(UTC+00:00)
Language:

CZ-4B R/B - Orbit

View from above orbital plane
View from above orbital plane
View from above satellite
View from above satellite

Ground track
Ground track

The orbit is defined by the following mean orbital elements,

1 32959U          26129.80317491 +.00000000 +00000-0 +41917-4 0 00000
2 32959  98.8553 199.8906 0069264  26.1338  82.9912 14.43019133    00
Epoch (UTC): 09 May 2026 19:16:34
Eccentricity: 0.0069264
inclination: 98.8553°
perigee height: 699 km
apogee height: 798 km
right ascension of ascending node: 199.8906°
argument of perigee: 26.1338°
revolutions per day: 14.43019133
mean anomaly at epoch: 82.9912°

The dashed part of the orbit path shows where the satellite is in the earth's shadow,  

DLR